sat.trackr.live / text

‹ back to catalog

STARLINK-34145

NORAD 64110 · 2025-110Q

PAYLOAD ACTIVE UNKNOWN

§ Identity

Operator
Country
US
Launch date
2025-05-23
Launch site
AFWTR
Launch vehicle
Mass (kg)
RCS (m²)

Purposes: comms

External: N2YO · Heavens-Above · Gunter

§ Orbital elements

Epoch: 2026-09-20T08:01:18.487200Z

Period
93.85 min
Inclination
53.1605°
Eccentricity
0.0001221
Mean motion
15.34427805 rev/d
Perigee alt
461.8 km
Apogee alt
463.5 km
Semi-major
6,840.8 km
B*
4.2547e-4
RAAN
198.3909°
Arg perigee
131.8964°
Mean anomaly
228.2143°
Rev number
7,574

§ Raw data

STARLINK-341451 64110U 25110Q   26263.33424175  .00014038  00000+0  42547-3 0  99992 64110  53.1605 198.3909 0001221 131.8964 228.2143 15.34427805 75745

JSON: /api/v1/satellites/64110 · /tle

For live sub-satellite position, see the globe view (requires WebGL).

§ Visibility from observer

Set your observer location to see the next 7 days of passes ≥ 10°. The values pass through the URL so the page stays shareable.

No JS? Fill the form by hand. The geolocation button needs JavaScript.